Date String (YYYY-MM-DD hh:mm:ss) UTC,Instrument flags,Ambient pressure (hPa),Sample flow (lpm),Bypass flow (lpm),Sample temperature (°C),Ambient temperature (°C),ASC tube jacket temperature (°C),LED temperature (°C),Box temperature (°C),Sample RH (%),Span deviation,Mass concentration (μg/m³),Mass concentration (μg/m³),Mass concentration (μg/m³)
DateTimeUTC,F1_M11,P_M11,Q1_M11,Q2_M11,T1_M11,T2_M11,T3_M11,T4_M11,T5_M11,U1_M11,ZSPAN_M11,X0_M11,X2_M11,X1_M11
2021-12-07 16:00:00,,0822.3,5.01,0.00,22.2,21.7,00.0,31.1,24.0,11.7,0000.0,0012.16,0003.45,0001.77
2021-12-07 16:01:00,,0822.3,5.01,0.00,22.2,21.7,00.0,31.2,24.0,11.7,0000.0,0012.92,0003.46,0001.78
2021-12-07 16:02:00,,0822.2,4.99,0.00,22.2,21.7,00.0,31.2,24.0,11.7,0000.0,0013.37,0003.50,0001.79
2021-12-07 16:03:00,,0822.2,5.00,0.00,22.3,21.7,00.0,31.2,24.0,11.7,0000.0,0012.94,0003.53,0001.80
2021-12-07 16:04:00,,0822.2,4.99,0.00,22.3,21.7,00.0,31.2,24.0,11.7,0000.0,0012.81,0003.50,0001.81
2021-12-07 16:05:00,,0822.3,5.01,0.00,22.3,21.7,00.0,31.2,24.0,11.7,0000.0,0011.63,0003.49,0001.82
2021-12-07 16:06:00,,0822.3,5.00,0.00,22.3,21.7,00.0,31.2,24.0,11.6,0000.0,0011.38,0003.47,0001.84
2021-12-07 16:07:00,,0822.3,4.98,0.00,22.3,21.7,00.0,31.2,24.0,11.6,0000.0,0012.03,0003.49,0001.86
2021-12-07 16:08:00,,0822.2,5.01,0.00,22.3,21.7,00.0,31.2,24.0,11.6,0000.0,0012.20,0003.45,0001.87
2021-12-07 16:09:00,,0822.2,5.00,0.00,22.3,21.7,00.0,31.2,24.0,11.6,0000.0,0012.48,0003.51,0001.89
2021-12-07 16:10:00,,0822.2,5.00,0.00,22.3,21.7,00.0,31.2,23.9,11.6,0000.0,0012.36,0003.54,0001.92
2021-12-07 16:11:00,,0822.4,4.99,0.00,22.2,21.7,00.0,31.2,23.9,11.6,0000.0,0012.20,0003.54,0001.95
2021-12-07 16:12:00,,0822.4,5.00,0.00,22.2,21.6,00.0,31.2,23.9,11.6,0000.0,0011.50,0003.54,0001.98
2021-12-07 16:13:00,,0822.4,5.00,0.00,22.2,21.6,00.0,31.2,24.0,11.6,0000.0,0010.40,0003.49,0001.99
2021-12-07 16:14:00,,0822.5,5.01,0.00,22.2,21.6,00.0,31.2,24.0,11.6,0000.0,0010.52,0003.51,0002.01
2021-12-07 16:15:00,,0822.6,5.01,0.00,22.2,21.6,00.0,31.2,24.0,11.6,0000.0,0011.35,0003.57,0002.02
2021-12-07 16:16:00,,0822.6,5.00,0.00,22.3,21.6,00.0,31.2,24.0,11.6,0000.0,0012.41,0003.63,0002.04
2021-12-07 16:17:00,,0822.6,5.00,0.00,22.3,21.7,00.0,31.2,24.1,11.5,0000.0,0013.28,0003.67,0002.07
2021-12-07 16:18:00,,0822.6,5.01,0.00,22.3,21.7,00.0,31.2,24.1,11.5,0000.0,0014.46,0003.71,0002.11
2021-12-07 16:19:00,,0822.6,4.99,0.00,22.3,21.8,00.0,31.2,24.1,11.5,0000.0,0015.81,0003.78,0002.15
2021-12-07 16:20:00,,0822.6,4.99,0.00,22.4,21.8,00.0,31.3,24.2,11.5,0000.0,0015.57,0003.81,0002.16
2021-12-07 16:21:00,,0822.6,5.01,0.00,22.4,21.8,00.0,31.3,24.2,11.5,0000.0,0015.52,0003.86,0002.18
2021-12-07 16:22:00,,0822.6,4.99,0.00,22.4,21.9,00.0,31.3,24.2,11.5,0000.0,0015.62,0003.86,0002.18
2021-12-07 16:23:00,,0822.6,5.00,0.00,22.4,21.9,00.0,31.3,24.3,11.4,0000.0,0015.85,0003.93,0002.19
2021-12-07 16:24:00,,0822.6,5.00,0.00,22.5,21.9,00.0,31.3,24.3,11.4,0000.0,0016.21,0004.02,0002.23
2021-12-07 16:25:00,,0822.6,4.98,0.00,22.5,21.9,00.0,31.3,24.3,11.4,0000.0,0016.36,0004.04,0002.27
2021-12-07 16:26:00,,0822.6,5.01,0.00,22.5,22.0,00.0,31.4,24.3,11.4,0000.0,0015.51,0004.03,0002.29
2021-12-07 16:27:00,,0822.6,4.98,0.00,22.5,22.0,00.0,31.4,24.4,11.4,0000.0,0015.62,0004.04,0002.31
2021-12-07 16:28:00,,0822.6,5.01,0.00,22.5,21.9,00.0,31.4,24.4,11.4,0000.0,0015.47,0004.08,0002.32
2021-12-07 16:29:00,,0822.6,4.99,0.00,22.5,22.0,00.0,31.4,24.3,11.4,0000.0,0015.13,0004.08,0002.32
2021-12-07 16:30:00,,0822.6,5.00,0.00,22.5,22.0,00.0,31.4,24.3,11.3,0000.0,0013.81,0004.06,0002.29
2021-12-07 16:31:00,,0822.6,5.00,0.00,22.6,22.0,00.0,31.4,24.3,11.2,0000.0,0013.81,0004.07,0002.30
2021-12-07 16:32:00,,0822.5,5.00,0.00,22.6,22.0,00.0,31.4,24.3,11.3,0000.0,0013.74,0004.01,0002.28
2021-12-07 16:33:00,,0822.3,5.00,0.00,22.6,22.0,00.0,31.4,24.3,11.4,0000.0,0013.63,0004.00,0002.27
2021-12-07 16:34:00,,0822.2,4.99,0.00,22.6,22.0,00.0,31.4,24.3,11.4,0000.0,0013.42,0003.98,0002.25
2021-12-07 16:35:00,,0822.1,5.01,0.00,22.6,22.0,00.0,31.5,24.3,11.5,0000.0,0013.13,0003.83,0002.18
2021-12-07 16:36:00,,0822.2,5.00,0.00,22.5,21.9,00.0,31.5,24.3,11.5,0000.0,0013.54,0003.80,0002.15
2021-12-07 16:37:00,,0822.3,5.01,0.00,22.5,21.9,00.0,31.5,24.3,11.5,0000.0,0013.52,0003.79,0002.12
2021-12-07 16:38:00,,0822.4,4.99,0.00,22.5,21.9,00.0,31.5,24.2,11.6,0000.0,0013.10,0003.77,0002.08
2021-12-07 16:39:00,,0822.4,5.00,0.00,22.5,21.9,00.0,31.5,24.2,11.8,0000.0,0012.66,0003.75,0002.03
2021-12-07 16:40:00,,0822.4,5.01,0.00,22.5,21.8,00.0,31.5,24.2,11.8,0000.0,0012.35,0003.68,0001.97
2021-12-07 16:41:00,,0822.6,5.00,0.00,22.5,21.8,00.0,31.5,24.2,11.9,0000.0,0012.42,0003.65,0001.93
2021-12-07 16:42:00,,0822.6,5.00,0.00,22.5,21.8,00.0,31.5,24.1,11.8,0000.0,0011.84,0003.53,0001.88
2021-12-07 16:43:00,,0822.7,5.00,0.00,22.5,21.8,00.0,31.4,24.2,11.8,0000.0,0011.34,0003.46,0001.85
2021-12-07 16:44:00,,0822.7,5.02,0.00,22.5,21.8,00.0,31.4,24.2,11.8,0000.0,0011.65,0003.42,0001.82
2021-12-07 16:45:00,,0822.8,4.99,0.00,22.5,21.8,00.0,31.4,24.2,11.9,0000.0,0011.86,0003.36,0001.80
2021-12-07 16:46:00,,0822.7,5.00,0.00,22.5,21.8,00.0,31.4,24.2,11.8,0000.0,0012.10,0003.39,0001.79
2021-12-07 16:47:00,,0822.6,5.00,0.00,22.5,21.8,00.0,31.5,24.3,11.8,0000.0,0012.05,0003.37,0001.78
2021-12-07 16:48:00,,0822.7,4.99,0.00,22.5,21.9,00.0,31.5,24.3,11.9,0000.0,0012.01,0003.32,0001.77
2021-12-07 16:49:00,,0822.7,5.01,0.00,22.5,21.9,00.0,31.5,24.2,11.9,0000.0,0011.84,0003.25,0001.75
2021-12-07 16:50:00,,0822.8,5.00,0.00,22.5,21.9,00.0,31.5,24.2,11.9,0000.0,0011.61,0003.19,0001.74
2021-12-07 16:51:00,,0822.8,5.01,0.00,22.5,21.8,00.0,31.5,24.2,11.9,0000.0,0011.63,0003.19,0001.74
2021-12-07 16:52:00,,0822.8,5.00,0.00,22.5,21.9,00.0,31.5,24.2,11.9,0000.0,0010.85,0003.18,0001.75
2021-12-07 16:53:00,,0822.8,4.99,0.00,22.5,21.9,00.0,31.5,24.3,11.9,0000.0,0010.73,0003.18,0001.75
2021-12-07 16:54:00,,0822.8,5.02,0.00,22.5,21.9,00.0,31.5,24.3,12.0,0000.0,0010.73,0003.16,0001.74
2021-12-07 16:55:00,,0822.8,5.00,0.00,22.5,21.9,00.0,31.5,24.3,12.0,0000.0,0010.49,0003.12,0001.70
2021-12-07 16:56:00,,0822.8,5.00,0.00,22.5,21.9,00.0,31.5,24.3,12.0,0000.0,0010.22,0003.12,0001.68
2021-12-07 16:57:00,,0822.8,5.01,0.00,22.5,21.9,00.0,31.5,24.3,12.0,0000.0,0009.87,0003.04,0001.65
2021-12-07 16:58:00,,0822.7,5.00,0.00,22.5,21.9,00.0,31.5,24.3,12.0,0000.0,0009.10,0002.93,0001.59
2021-12-07 16:59:00,,0822.7,4.99,0.00,22.5,21.9,00.0,31.5,24.3,12.0,0000.0,0008.67,0002.84,0001.55
